WZZ2037 EYVI-EPKK

Flight info

Callsign WZZ2037
Flight time 1h 2m
Altitude 36000
Route UPASI DCT TUNGA DCT SUWGI DCT TITUV M985 EVINA M66 KUKAM
Aircraft A20N/M-SDE2E3FGHIRWXY/LB1

Departure

Time 2026-05-05 10:17
Airport Vilnius International Airport (EYVI)

Arrival

Time 2026-05-05 11:19
Airport Kraków John Paul II International Airport (EPKK)
Time Latitude Longitude Altitude Speed Heading
2026-05-05 09:55 54.64240 25.28270 651 ft 0 kts 329°
2026-05-05 10:08 54.64236 25.28275 651 ft 3 kts 330°
2026-05-05 10:08 54.64218 25.28285 652 ft 3 kts 348°
2026-05-05 10:08 54.64200 25.28297 654 ft 3 kts 315°
2026-05-05 10:08 54.64191 25.28325 653 ft 3 kts 274°
2026-05-05 10:09 54.64191 25.28340 653 ft 0 kts 254°
2026-05-05 10:10 54.64191 25.28337 653 ft 1 kts 254°
2026-05-05 10:10 54.64187 25.28315 653 ft 4 kts 255°
2026-05-05 10:10 54.64175 25.28238 650 ft 9 kts 255°
2026-05-05 10:10 54.64121 25.28172 648 ft 13 kts 175°
2026-05-05 10:11 54.64014 25.28205 646 ft 18 kts 167°
2026-05-05 10:11 54.63876 25.28257 643 ft 22 kts 167°
2026-05-05 10:11 54.63753 25.28305 641 ft 20 kts 167°
2026-05-05 10:11 54.63626 25.28354 640 ft 17 kts 170°
2026-05-05 10:12 54.63499 25.28323 635 ft 16 kts 202°
2026-05-05 10:12 54.63396 25.28251 639 ft 18 kts 202°
2026-05-05 10:12 54.63263 25.28158 632 ft 23 kts 202°
2026-05-05 10:12 54.63103 25.28046 632 ft 27 kts 202°
2026-05-05 10:13 54.62951 25.27941 628 ft 17 kts 201°
2026-05-05 10:13 54.62827 25.27856 618 ft 21 kts 202°
2026-05-05 10:13 54.62678 25.27753 619 ft 18 kts 201°
2026-05-05 10:13 54.62591 25.27694 612 ft 14 kts 201°
2026-05-05 10:14 54.62542 25.27665 623 ft 7 kts 189°
2026-05-05 10:14 54.62490 25.27698 614 ft 10 kts 143°
2026-05-05 10:14 54.62428 25.27808 616 ft 16 kts 107°
2026-05-05 10:14 54.62461 25.27913 607 ft 10 kts 27°
2026-05-05 10:15 54.62477 25.27924 612 ft 0 kts 22°
2026-05-05 10:15 54.62489 25.27933 607 ft 3 kts 22°
2026-05-05 10:16 54.62522 25.27956 614 ft 11 kts 22°
2026-05-05 10:16 54.62771 25.28127 622 ft 72 kts 22°
2026-05-05 10:16 54.63443 25.28592 637 ft 135 kts 22°
2026-05-05 10:16 54.64437 25.29277 901 ft 161 kts 20°
2026-05-05 10:17 54.65505 25.30019 1377 ft 168 kts 19°
2026-05-05 10:17 54.66623 25.30791 1946 ft 182 kts 18°
2026-05-05 10:17 54.67890 25.31618 2348 ft 214 kts 18°
2026-05-05 10:17 54.69397 25.32600 2896 ft 249 kts 19°
2026-05-05 10:18 54.71041 25.33739 3398 ft 260 kts 20°
2026-05-05 10:18 54.72749 25.34969 3966 ft 268 kts 20°
2026-05-05 10:18 54.74487 25.36205 4520 ft 271 kts 19°
2026-05-05 10:18 54.76239 25.37449 5071 ft 274 kts 18°
2026-05-05 10:19 54.78061 25.38423 5622 ft 274 kts
2026-05-05 10:19 54.79982 25.38670 6213 ft 284 kts 351°
2026-05-05 10:19 54.81915 25.37709 6771 ft 295 kts 324°
2026-05-05 10:19 54.83341 25.35230 7331 ft 299 kts 296°
2026-05-05 10:20 54.83853 25.31768 7884 ft 305 kts 267°
2026-05-05 10:20 54.83429 25.28070 8460 ft 324 kts 250°
2026-05-05 10:20 54.82464 25.24435 9040 ft 339 kts 242°
2026-05-05 10:20 54.81246 25.20864 9632 ft 350 kts 239°
2026-05-05 10:21 54.79928 25.17236 10179 ft 358 kts 238°
2026-05-05 10:21 54.78614 25.13550 10710 ft 362 kts 239°
2026-05-05 10:21 54.77324 25.09755 11252 ft 368 kts 241°
2026-05-05 10:21 54.76057 25.05849 11811 ft 374 kts 242°
2026-05-05 10:22 54.74807 25.01872 12382 ft 378 kts 242°
2026-05-05 10:22 54.73560 24.97830 12960 ft 383 kts 243°
2026-05-05 10:22 54.72321 24.93789 13646 ft 386 kts 243°
2026-05-05 10:22 54.71055 24.89665 14231 ft 390 kts 243°
2026-05-05 10:23 54.69775 24.85510 14817 ft 393 kts 243°
2026-05-05 10:23 54.68480 24.81325 15419 ft 395 kts 243°
2026-05-05 10:23 54.67174 24.77119 16031 ft 398 kts 242°
2026-05-05 10:23 54.65858 24.72900 16660 ft 400 kts 243°
2026-05-05 10:24 54.64530 24.68653 17322 ft 402 kts 242°
2026-05-05 10:24 54.63645 24.65826 17758 ft 404 kts 242°
2026-05-05 10:24 54.61851 24.60104 18568 ft 407 kts 242°
2026-05-05 10:24 54.60951 24.57240 18955 ft 409 kts 242°
2026-05-05 10:25 54.59591 24.52918 19517 ft 411 kts 242°
2026-05-05 10:25 54.57774 24.47156 20299 ft 413 kts 242°
2026-05-05 10:25 54.56845 24.44215 20701 ft 414 kts 242°
2026-05-05 10:25 54.55463 24.39849 21312 ft 416 kts 242°
2026-05-05 10:26 54.54074 24.35470 21932 ft 416 kts 242°
2026-05-05 10:26 54.52690 24.31111 22242 ft 424 kts 242°
2026-05-05 10:26 54.51255 24.26600 22464 ft 434 kts 242°
2026-05-05 10:26 54.49792 24.22008 22812 ft 439 kts 242°
2026-05-05 10:27 54.48314 24.17380 23264 ft 442 kts 242°
2026-05-05 10:27 54.46824 24.12725 23667 ft 445 kts 242°
2026-05-05 10:27 54.45329 24.08065 24064 ft 447 kts 242°
2026-05-05 10:27 54.43820 24.03368 24450 ft 449 kts 242°
2026-05-05 10:28 54.42310 23.98678 24884 ft 451 kts 242°
2026-05-05 10:28 54.40790 23.93965 25410 ft 450 kts 242°
2026-05-05 10:28 54.39276 23.89280 25960 ft 448 kts 242°
2026-05-05 10:28 54.37766 23.84619 26508 ft 446 kts 242°
2026-05-05 10:29 54.36261 23.79980 27064 ft 444 kts 242°
2026-05-05 10:29 54.34763 23.75373 27603 ft 442 kts 242°
2026-05-05 10:29 54.33267 23.70779 28148 ft 440 kts 242°
2026-05-05 10:29 54.31777 23.66211 28667 ft 438 kts 242°
2026-05-05 10:30 54.30291 23.61666 29183 ft 437 kts 242°
2026-05-05 10:30 54.28827 23.57195 29706 ft 435 kts 242°
2026-05-05 10:30 54.27349 23.52691 30189 ft 433 kts 242°
2026-05-05 10:30 54.25872 23.48198 30591 ft 432 kts 242°
2026-05-05 10:31 54.24262 23.43843 30975 ft 432 kts 236°
2026-05-05 10:31 54.22358 23.39871 31347 ft 434 kts 229°
2026-05-05 10:31 54.20119 23.36384 31730 ft 436 kts 220°
2026-05-05 10:31 54.17647 23.33363 32104 ft 437 kts 217°
2026-05-05 10:32 54.15104 23.30535 32463 ft 437 kts 216°
2026-05-05 10:32 54.12524 23.27807 32827 ft 436 kts 214°
2026-05-05 10:32 54.09933 23.25123 33168 ft 435 kts 214°
2026-05-05 10:32 54.07348 23.22453 33522 ft 435 kts 214°
2026-05-05 10:33 54.04757 23.19765 33866 ft 434 kts 214°
2026-05-05 10:33 54.02188 23.17084 34153 ft 433 kts 215°
2026-05-05 10:33 53.99658 23.14432 34421 ft 432 kts 215°
2026-05-05 10:33 53.97097 23.11741 34685 ft 432 kts 215°
2026-05-05 10:34 53.94551 23.09064 34930 ft 432 kts 215°
2026-05-05 10:34 53.91994 23.06378 35199 ft 431 kts 215°
2026-05-05 10:34 53.89436 23.03694 35459 ft 431 kts 215°
2026-05-05 10:34 53.86895 23.01034 35694 ft 431 kts 215°
2026-05-05 10:35 53.84334 22.98357 35927 ft 431 kts 215°
2026-05-05 10:35 53.81781 22.95692 35915 ft 431 kts 215°
2026-05-05 10:35 53.76684 22.90385 35901 ft 431 kts 215°
2026-05-05 10:36 53.71578 22.85085 35898 ft 431 kts 214°
2026-05-05 10:36 53.66464 22.79793 35896 ft 431 kts 214°
2026-05-05 10:37 53.61342 22.74507 35898 ft 431 kts 214°
2026-05-05 10:37 53.56221 22.69238 35896 ft 431 kts 214°
2026-05-05 10:38 53.51128 22.64012 35895 ft 432 kts 214°
2026-05-05 10:38 53.45990 22.58756 35893 ft 432 kts 214°
2026-05-05 10:39 53.40855 22.53517 35890 ft 432 kts 214°
2026-05-05 10:39 53.35717 22.48291 35892 ft 432 kts 214°
2026-05-05 10:40 53.30571 22.43071 35889 ft 432 kts 214°
2026-05-05 10:40 53.25446 22.37887 35885 ft 432 kts 214°
2026-05-05 10:41 53.20291 22.32688 35885 ft 432 kts 214°
2026-05-05 10:41 53.15135 22.27502 35883 ft 433 kts 214°
2026-05-05 10:42 53.07376 22.19727 35883 ft 433 kts 213°
2026-05-05 10:43 53.02247 22.14605 35880 ft 433 kts 213°
2026-05-05 10:43 52.97066 22.09446 35878 ft 433 kts 213°
2026-05-05 10:44 52.91885 22.04301 35878 ft 434 kts 213°
2026-05-05 10:44 52.86704 21.99171 35874 ft 434 kts 213°
2026-05-05 10:45 52.81525 21.94057 35871 ft 434 kts 213°
2026-05-05 10:45 52.76334 21.88946 35876 ft 434 kts 213°
2026-05-05 10:46 52.71148 21.83854 35872 ft 434 kts 213°
2026-05-05 10:46 52.65947 21.78761 35870 ft 435 kts 213°
2026-05-05 10:47 52.60765 21.73702 35868 ft 435 kts 213°
2026-05-05 10:47 52.55555 21.68629 35867 ft 435 kts 213°
2026-05-05 10:48 52.50349 21.63574 35868 ft 435 kts 213°
2026-05-05 10:48 52.45129 21.58519 35863 ft 435 kts 213°
2026-05-05 10:49 52.39906 21.53476 35860 ft 435 kts 213°
2026-05-05 10:49 52.34685 21.48449 35867 ft 435 kts 213°
2026-05-05 10:50 52.29487 21.43458 35861 ft 435 kts 213°
2026-05-05 10:50 52.24260 21.38453 35853 ft 435 kts 212°
2026-05-05 10:51 52.19031 21.33459 35859 ft 436 kts 212°
2026-05-05 10:51 52.13798 21.28477 35856 ft 436 kts 212°
2026-05-05 10:52 52.08559 21.23500 35853 ft 436 kts 212°
2026-05-05 10:52 52.03322 21.18539 35854 ft 436 kts 212°
2026-05-05 10:53 51.98082 21.13590 35851 ft 436 kts 212°
2026-05-05 10:53 51.92872 21.08683 35862 ft 436 kts 212°
2026-05-05 10:54 51.87630 21.03758 35854 ft 436 kts 212°
2026-05-05 10:54 51.82378 20.98838 35862 ft 435 kts 212°
2026-05-05 10:55 51.77133 20.93938 35862 ft 435 kts 212°
2026-05-05 10:55 51.71880 20.89043 35859 ft 435 kts 212°
2026-05-05 10:55 51.69267 20.86614 35655 ft 432 kts 212°
2026-05-05 10:56 51.66667 20.84201 35067 ft 432 kts 212°
2026-05-05 10:56 51.64086 20.81806 34479 ft 434 kts 212°
2026-05-05 10:56 51.61467 20.79379 33903 ft 436 kts 212°
2026-05-05 10:56 51.58834 20.76942 33249 ft 437 kts 212°
2026-05-05 10:57 51.56193 20.74503 32595 ft 439 kts 212°
2026-05-05 10:57 51.53530 20.72046 31973 ft 441 kts 212°
2026-05-05 10:57 51.50860 20.69586 31359 ft 444 kts 212°
2026-05-05 10:57 51.48174 20.67115 30755 ft 447 kts 212°
2026-05-05 10:58 51.45462 20.64623 30162 ft 450 kts 211°
2026-05-05 10:58 51.42743 20.62129 29516 ft 450 kts 211°
2026-05-05 10:58 51.40018 20.59634 28845 ft 451 kts 211°
2026-05-05 10:58 51.37280 20.57129 28188 ft 456 kts 211°
2026-05-05 10:59 51.34512 20.54601 27551 ft 459 kts 211°
2026-05-05 10:59 51.31734 20.52066 26871 ft 461 kts 211°
2026-05-05 10:59 51.28932 20.49513 26212 ft 464 kts 211°
2026-05-05 10:59 51.26124 20.46958 25565 ft 466 kts 211°
2026-05-05 11:00 51.23295 20.44390 24932 ft 469 kts 211°
2026-05-05 11:00 51.20457 20.41816 24324 ft 471 kts 210°
2026-05-05 11:00 51.17636 20.39260 23726 ft 471 kts 210°
2026-05-05 11:00 51.14796 20.36693 23074 ft 468 kts 210°
2026-05-05 11:01 51.11987 20.34157 22362 ft 459 kts 210°
2026-05-05 11:01 51.09231 20.31674 21672 ft 449 kts 210°
2026-05-05 11:01 51.06543 20.29254 21000 ft 439 kts 210°
2026-05-05 11:01 51.03901 20.26880 20335 ft 431 kts 210°
2026-05-05 11:02 51.01320 20.24562 19695 ft 422 kts 210°
2026-05-05 11:02 50.98786 20.22288 19071 ft 414 kts 210°
2026-05-05 11:02 50.96296 20.20056 18461 ft 407 kts 211°
2026-05-05 11:02 50.93850 20.17866 17799 ft 400 kts 211°
2026-05-05 11:03 50.91472 20.15741 17118 ft 394 kts 211°
2026-05-05 11:03 50.89104 20.13627 16444 ft 387 kts 211°
2026-05-05 11:03 50.86780 20.11555 15777 ft 380 kts 211°
2026-05-05 11:03 50.84492 20.09517 15135 ft 374 kts 211°
2026-05-05 11:04 50.82241 20.07523 14502 ft 366 kts 209°
2026-05-05 11:04 50.79917 20.06038 13862 ft 352 kts 200°
2026-05-05 11:04 50.77608 20.05001 13198 ft 338 kts 197°
2026-05-05 11:04 50.75406 20.04108 12537 ft 327 kts 197°
2026-05-05 11:05 50.73200 20.03240 11855 ft 317 kts 196°
2026-05-05 11:05 50.71092 20.02419 11207 ft 308 kts 196°
2026-05-05 11:05 50.69033 20.01617 10570 ft 300 kts 196°
2026-05-05 11:05 50.67051 20.00855 9956 ft 295 kts 195°
2026-05-05 11:06 50.65055 20.00092 9274 ft 288 kts 195°
2026-05-05 11:06 50.63145 19.99363 8618 ft 283 kts 195°
2026-05-05 11:06 50.61249 19.98641 7952 ft 279 kts 195°
2026-05-05 11:06 50.59376 19.97926 7383 ft 272 kts 195°
2026-05-05 11:07 50.57593 19.97247 7039 ft 255 kts 195°
2026-05-05 11:07 50.55908 19.96606 6979 ft 246 kts 195°
2026-05-05 11:07 50.54236 19.95968 6994 ft 247 kts 195°
2026-05-05 11:07 50.52517 19.95761 6906 ft 251 kts 176°
2026-05-05 11:08 50.50783 19.96369 6555 ft 256 kts 167°
2026-05-05 11:08 50.49099 19.97161 6344 ft 251 kts 166°
2026-05-05 11:08 50.47453 19.97957 6209 ft 242 kts 166°
2026-05-05 11:08 50.45892 19.98736 6149 ft 229 kts 166°
2026-05-05 11:09 50.44395 19.99485 5738 ft 225 kts 166°
2026-05-05 11:09 50.42891 20.00202 5260 ft 226 kts 166°
2026-05-05 11:09 50.41884 20.00667 5015 ft 228 kts 166°
2026-05-05 11:09 50.39843 20.01589 4625 ft 228 kts 166°
2026-05-05 11:10 50.38837 20.02044 4431 ft 226 kts 166°
2026-05-05 11:10 50.37322 20.02722 4172 ft 227 kts 166°
2026-05-05 11:10 50.35814 20.03387 4001 ft 223 kts 166°
2026-05-05 11:10 50.33829 20.04234 4006 ft 223 kts 166°
2026-05-05 11:11 50.32825 20.04659 3984 ft 222 kts 167°
2026-05-05 11:11 50.31325 20.05310 4002 ft 224 kts 166°
2026-05-05 11:11 50.29840 20.05954 3980 ft 224 kts 166°
2026-05-05 11:11 50.28346 20.06609 3974 ft 219 kts 166°
2026-05-05 11:12 50.26890 20.07237 4006 ft 217 kts 166°
2026-05-05 11:12 50.25410 20.07875 3976 ft 221 kts 166°
2026-05-05 11:12 50.23950 20.08506 3992 ft 212 kts 166°
2026-05-05 11:12 50.22592 20.09088 3968 ft 193 kts 167°
2026-05-05 11:13 50.21340 20.09565 3982 ft 184 kts 174°
2026-05-05 11:13 50.20069 20.09670 4001 ft 182 kts 181°
2026-05-05 11:13 50.18809 20.09649 3997 ft 181 kts 183°
2026-05-05 11:13 50.17549 20.09570 3999 ft 181 kts 182°
2026-05-05 11:14 50.16287 20.09475 3996 ft 182 kts 184°
2026-05-05 11:14 50.15017 20.09385 4011 ft 183 kts 181°
2026-05-05 11:14 50.13746 20.09371 3999 ft 183 kts 186°
2026-05-05 11:14 50.12547 20.08767 3979 ft 182 kts 214°
2026-05-05 11:15 50.11750 20.07239 4000 ft 187 kts 244°
2026-05-05 11:15 50.11395 20.05308 3986 ft 183 kts 254°
2026-05-05 11:15 50.11150 20.03370 3790 ft 183 kts 256°
2026-05-05 11:15 50.10904 20.01409 3530 ft 186 kts 255°
2026-05-05 11:16 50.10645 19.99409 3268 ft 189 kts 255°
2026-05-05 11:16 50.10386 19.97413 3041 ft 185 kts 254°
2026-05-05 11:16 50.10122 19.95465 2776 ft 181 kts 253°
2026-05-05 11:16 50.09871 19.93620 2464 ft 170 kts 253°
2026-05-05 11:17 50.09649 19.91915 2412 ft 151 kts 253°
2026-05-05 11:17 50.09441 19.90347 2292 ft 145 kts 253°
2026-05-05 11:17 50.09230 19.88799 2145 ft 153 kts 251°
2026-05-05 11:17 50.08973 19.87073 2001 ft 171 kts 252°
2026-05-05 11:18 50.08707 19.85230 1615 ft 175 kts 252°
2026-05-05 11:18 50.08455 19.83409 1348 ft 170 kts 251°
2026-05-05 11:18 50.08214 19.81642 1057 ft 163 kts 254°
2026-05-05 11:18 50.07979 19.80028 857 ft 147 kts 257°
2026-05-05 11:19 50.07781 19.78596 797 ft 119 kts 258°
2026-05-05 11:19 50.07658 19.77685 798 ft 64 kts 258°
2026-05-05 11:19 50.07596 19.77248 803 ft 28 kts 258°
2026-05-05 11:19 50.07558 19.76961 804 ft 27 kts 258°
2026-05-05 11:20 50.07513 19.76875 805 ft 10 kts 202°
2026-05-05 11:20 50.07450 19.76869 803 ft 1 kts 176°
2026-05-05 11:20 50.07409 19.76876 803 ft 10 kts 168°
2026-05-05 11:20 50.07336 19.76903 803 ft 8 kts 159°
2026-05-05 11:21 50.07309 19.76988 802 ft 7 kts 77°
2026-05-05 11:21 50.07315 19.77031 802 ft 9 kts 77°
2026-05-05 11:21 50.07335 19.77171 802 ft 18 kts 77°
2026-05-05 11:21 50.07367 19.77399 801 ft 25 kts 78°
2026-05-05 11:22 50.07410 19.77703 800 ft 31 kts 78°
2026-05-05 11:22 50.07433 19.77874 799 ft 18 kts 78°
2026-05-05 11:22 50.07464 19.78104 798 ft 25 kts 78°
2026-05-05 11:22 50.07505 19.78411 797 ft 32 kts 78°
2026-05-05 11:23 50.07549 19.78719 796 ft 29 kts 77°
2026-05-05 11:23 50.07592 19.79026 795 ft 25 kts 77°
2026-05-05 11:23 50.07633 19.79323 794 ft 31 kts 77°
2026-05-05 11:23 50.07668 19.79590 793 ft 17 kts 92°
2026-05-05 11:24 50.07666 19.79702 792 ft 3 kts 143°
2026-05-05 11:24 50.07614 19.79783 792 ft 19 kts 127°
2026-05-05 11:24 50.07535 19.79918 792 ft 0 kts 159°
2026-05-05 11:24 50.07478 19.79953 792 ft 17 kts 159°
2026-05-05 11:25 50.07434 19.80049 792 ft 0 kts 93°
2026-05-05 11:25 50.07447 19.80131 791 ft 13 kts 39°
2026-05-05 11:25 50.07482 19.80136 791 ft 0 kts 350°